Weather in Kochkurovo

Russia / Republic of Mordovia     54°25′40″N   46°07′44″E
temp.,
°C
wind,
m/s
gust,
m/s
humid.,
%
clouds,
%
prec.,
mm/h
press.,
hPa
HPBL,
m
7 march, sun
sun700:00−13w229883 0.0 101320
03:00−15w229755 0.1 101320
06:00−16wsw239513 0.0 101323
09:00−13sw589315 0.0 1012251
12:00−8sw7118890 0.0 1009634
15:00−7ssw8138695 0.0 1006773
18:00−7ssw91693100 0.7 1002958
21:00−5sw101693100 1.8 9991069
8 march, mon
mon800:00−5ssw91792100 0.5 994812
03:00−3wsw101691100 1.5 9921137
06:00−9wsw9198657 0.0 994563
09:00−8wsw9158862 0.1 998685
12:00−6wsw8128495 0.0 1000907
15:00−5wsw6108584 0.0 1001853
18:00−9sw349080 0.0 100141
21:00−8wsw5119389 0.1 1002354
9 march, tue
tue900:00−11w5119584 0.0 1003246
03:00−13w589790 0.1 1005166
06:00−16w479891 0.0 1008132
09:00−14wnw469694 0.1 1009249
12:00−11wnw4694100 0.0 1010343
15:00−10nw4690100 0.1 1011600
18:00−14nw3596100 0.1 1012120
21:00−15nw4794100 0.1 1014259
10 march, wed
wed1000:00−18nw359796 0.1 1015125
03:00−19nw369897 0.1 1016142
06:00−20nnw479797 0.1 1018243
09:00−19nnw589597 0.1 1020385
12:00−19nnw579299 0.0 1021500
15:00−19nnw589099 0.1 1022539
18:00−23nw489699 0.0 1023198
21:00−24nw469893 0.0 1025116
11 march, thu
thu1100:00−25wnw359519 0.0 102680
03:00−26w359810 0.0 102687
06:00−24w5109728 0.0 1026210
09:00−21w6109552 0.0 1026266
12:00−16w6119184 0.0 1026344
15:00−12w7128746 0.0 1026463
18:00−14w611914 0.0 1027252
21:00−16w510902 0.0 1029163